PEGASUS R/B, 41892

Orbit data source: Space-Track

PEGASUS R/B, 41892 is space debris in LEO originally from a launch on Thu, 15 Dec 2016 UTC launched from the Pegasus Launch, Eastern Range Air Space (ERAS). Debris objects in space refer to the collection of defunct objects orbiting the Earth. Examples of debris include non-operational satellites, rocket bodies, and fragments generated from explosions, collisions, or faulty payload assembly.

Loading next visibility...
PEGASUS R/B details
Identifier
41892, 2016-078J
Orbit
LEO
Last TLE update18 hours ago
Origin
Flag of USOATK FSG (US)
ManufacturerOATK FSG Utah
MissionSpacecraft
Bus & MotorORION 38, Unknown motor
Mass315 kg wet, 202 kg dry
Launch date (UTC)
2016-12-15 (8 years ago)
Launch vehicleUnknown
Launch site
Pegasus Launch, Eastern Range Air Space (ERAS)
Object type
Payload
Rocket body
Debris
Shape & HBRCyl + 1 Nozzle, 1.4 m
Radar Cross Section1.427 m², Large (>1 m²)

Expand to show TLE details & history

TLE from 18 hours ago
0 PEGASUS R/B
1 41892U 16078J   24361.03325766  .00026772  00000-0  69211-3 0  9990
2 41892  34.9372 124.3035 0010265 173.5406 186.5446 15.38090088445955
Epoch: 2024-12-26T00:47Z
Definitive object data (Epoch: 2024-12-26T00:47:53.461Z)
Latitude-0.00003°
Longitude17.31225°
Altitude457.614 km
Speed7.637 km/s
True Right ascension08h 17m 12s
True Declination0° 00' 00"
Sunlit
Object was in full shadow at TLE epoch
Visualization TLE readout
Latitude-19.70928°
Longitude-136.87503°
Altitude449.374 km
Speed7.647 km/s
Apparent Right ascension01h 11m 00s
Apparent Declination-49° 00' 28"
Sunlit
Object is in daylight
Visualization observer readout
Local Sidereal Time18:14:33
Azimuth126.823° SE
Elevation-37.372°
Doppler factor1
Orbital elements
Apogee altitude462.053 km
Perigee altitude448.025 km
Semi-major axis6,833.176 km
Eccentricity0.0010265
Inclination34.9372°
RAAN124.3035°
Arg. of periapsis173.5406°
True anomaly186.53121°
Mean anomaly186.5446°
Eccentric anomaly186.5379°
Mean motion3.84246 °/min
BSTAR0.00069211
Orbital period93.69 mins
Loading maneuver chart data...
Loading historical data...
Loading historical data...
Loading historical data...
Loading historical data...
Loading historical data...
Loading historical data...
Loading historical data...

PEGASUS R/B Visibility forecast

Observer location: undefined°, undefined

Span
Click to sort rows by Start time (UTC) header in descending order
Start Az.
Max El. time (UTC)
Max El. Az.
Max El.
End time (UTC)
End Az.
4 mins2024-12-27 12:55:59.688Z203.317° SW2024-12-27 12:56:59.688Z174.919° S25.601°2024-12-27 12:59:59.688Z110.12° ESE
4 mins2024-12-27 14:33:59.688Z233.379° WSW2024-12-27 14:35:59.688Z168.846° S29.235°2024-12-27 14:37:59.688Z124.127° SE
|